Theta_e
317 317 317 317 317 317 317 318 318 319 319 320 320 320 321 321 321 321 321 321 322 322 322 321 322 322 322 322 323 325 321 319 317 314 313 318 327 341 349 345 348 351 348 339 343 337 331 332 333 336 336 334 330 324 331 336 329 325 319 316 313 315 314 319 320 323 326 324 328 330 332 330 327 332 335 338 335 334 335 335 338 340 340 343 344 347 349 350
317 317 317 317 317 317 317 317 318 318 318 319 319 320 320 321 321 321 321 321 322 321 321 321 321 322 322 322 324 324 322 320 315 316 316 325 342 347 349 355 351 351 339 330 333 328 323 324 325 332 329 326 326 323 330 327 328 320 318 317 314 315 318 323 324 327 324 325 330 331 333 331 329 333 334 330 329 331 331 334 337 337 340 344 346 347 347 348
317 317 316 316 316 316 317 317 318 318 318 319 319 319 320 320 321 321 321 321 321 321 321 321 321 321 322 322 323 323 321 317 314 310 315 343 348 354 349 354 352 353 326 324 325 321 317 318 323 327 325 319 321 321 323 321 324 322 320 316 317 320 320 322 326 325 327 331 330 330 331 331 332 333 336 329 329 331 329 331 333 334 335 340 343 345 346 347
316 316 316 316 316 316 316 317 317 318 318 318 318 319 319 319 320 320 320 320 320 320 320 320 321 321 321 322 324 324 319 317 308 312 314 344 355 353 350 350 357 351 325 325 324 321 318 322 325 323 318 316 318 319 319 321 321 321 319 317 319 320 318 321 325 326 329 332 331 331 332 330 332 333 332 330 327 328 331 334 333 334 337 340 342 344 345 346
316 316 316 316 316 316 316 316 317 317 318 318 318 318 318 319 320 320 320 319 319 320 320 320 320 321 321 322 321 323 316 306 309 309 314 352 357 351 355 348 355 341 326 323 321 319 319 320 320 318 316 312 317 318 318 321 326 320 320 323 321 319 319 323 324 326 330 333 332 331 328 328 335 333 331 330 324 324 330 336 337 339 341 341 341 343 344 345
315 315 315 315 315 315 316 316 317 317 317 317 318 318 319 319 319 319 319 319 319 319 319 320 320 321 322 322 323 320 310 300 310 314 346 356 356 356 354 353 355 333 324 321 321 319 318 316 317 313 313 315 316 314 317 319 321 315 319 318 321 321 320 322 324 326 331 331 330 328 330 333 331 329 332 330 329 331 337 339 340 342 343 344 344 344 343 344
315 315 315 315 315 315 315 316 315 316 317 317 317 318 318 318 318 318 318 318 318 319 319 320 320 321 322 322 317 315 311 312 316 319 344 356 355 357 358 357 357 327 323 320 320 317 317 315 313 313 313 314 315 316 318 317 318 318 315 316 318 320 321 323 323 329 331 331 329 332 334 330 330 325 332 330 331 336 338 341 342 344 344 345 342 343 343 344
314 314 315 315 315 315 315 315 315 315 316 316 317 317 317 318 317 318 318 318 318 319 320 320 320 321 323 320 311 307 307 309 318 317 342 351 339 340 345 349 336 323 321 320 319 317 316 312 310 316 313 309 314 316 315 314 314 315 314 316 315 319 323 323 325 329 331 331 333 332 328 329 330 329 331 328 333 337 339 342 343 344 344 344 344 343 344 344
314 314 314 314 314 314 315 315 315 315 315 316 316 316 317 317 317 317 318 318 319 319 320 320 320 321 323 321 309 307 308 315 317 318 340 336 330 325 331 328 324 321 320 319 320 318 315 312 312 317 310 313 316 317 313 312 311 313 314 315 317 318 322 323 326 329 331 330 331 329 328 331 331 333 328 331 335 339 341 342 343 343 342 342 343 344 345 345
314 314 314 314 314 314 314 314 314 315 315 316 316 316 316 316 316 317 317 318 319 319 320 321 320 322 322 309 308 304 314 317 316 340 340 334 327 325 326 326 323 320 318 317 317 318 315 315 316 319 318 316 316 315 313 312 312 315 316 317 317 320 321 324 325 328 330 330 331 327 327 328 331 329 323 333 338 340 340 341 342 342 341 342 343 344 345 344
314 314 314 314 314 314 314 314 315 315 316 315 315 315 315 316 316 316 317 318 319 320 320 320 322 321 314 317 308 305 317 320 329 336 333 328 323 322 324 321 320 320 319 316 317 318 316 317 320 320 317 316 315 313 312 313 315 317 321 321 319 320 323 324 326 327 329 327 331 330 326 329 330 328 326 333 338 340 339 339 341 341 342 343 344 344 347 347
313 313 313 314 314 313 313 314 314 314 315 315 315 315 315 315 315 316 317 318 320 321 320 321 323 321 320 311 309 310 317 317 328 318 319 320 318 320 325 324 320 320 319 316 317 318 316 320 320 318 311 317 313 313 312 315 319 322 322 317 318 320 320 323 323 326 329 326 330 330 326 323 325 323 330 336 339 339 339 339 340 340 342 343 344 345 345 346
313 313 313 313 313 313 313 314 314 314 314 314 314 314 315 315 315 316 317 319 321 321 322 323 324 322 315 307 310 317 318 319 318 319 319 320 320 324 324 325 321 319 319 319 317 319 320 319 317 314 316 315 313 311 313 324 324 324 323 320 317 317 317 322 325 327 327 327 330 328 313 319 323 327 333 337 338 338 337 338 339 340 341 342 344 344 345 347
313 313 313 313 313 313 313 313 313 313 313 313 313 313 313 314 315 316 318 320 323 322 322 326 323 320 311 308 315 318 319 319 320 323 323 322 319 320 319 322 322 320 318 318 317 317 320 319 318 314 316 314 312 315 320 322 323 319 321 321 316 314 314 322 323 325 323 328 329 327 314 318 324 327 334 337 338 336 335 337 338 339 340 341 342 343 343 345
313 313 313 313 313 313 313 313 312 312 313 313 313 313 312 313 315 318 320 323 323 323 324 326 323 317 309 312 320 323 336 329 329 329 327 320 318 316 319 318 320 319 317 318 317 316 319 318 316 312 311 314 314 317 317 318 320 321 315 313 317 314 316 321 325 324 321 325 329 325 315 318 323 327 335 337 337 337 334 336 337 338 339 340 342 342 343 344
312 312 312 312 312 312 312 312 312 312 312 312 311 312 313 313 316 319 324 323 323 325 325 319 319 317 312 309 318 328 324 318 319 324 328 323 320 317 319 317 319 317 318 318 317 317 316 318 312 312 312 312 311 315 316 316 317 318 315 313 313 316 316 318 322 325 326 325 327 323 316 320 320 329 334 337 336 336 335 335 336 337 338 339 340 341 343 344
312 312 312 312 312 312 312 312 311 311 311 311 311 312 313 315 319 324 326 326 325 324 324 320 319 322 306 318 324 318 317 320 323 321 322 323 322 317 316 316 315 314 316 316 317 316 315 313 315 311 311 311 310 317 313 311 312 314 314 314 316 313 315 314 321 324 325 325 321 324 319 319 324 329 333 335 336 335 334 335 336 337 338 339 340 341 341 342
312 312 311 312 312 312 312 312 311 311 311 310 310 311 310 315 318 320 324 323 324 323 323 324 321 314 310 316 311 315 316 316 317 319 319 320 322 316 316 312 311 315 314 312 313 311 312 309 310 306 309 308 309 314 309 306 310 312 311 313 312 315 317 316 315 321 324 324 321 322 320 320 323 329 332 334 336 334 334 335 336 336 337 338 339 340 341 342
311 311 311 311 311 311 311 311 311 311 310 310 311 312 314 317 320 320 320 320 313 310 305 313 310 302 300 308 314 314 316 318 319 318 318 319 318 315 313 314 315 313 308 308 308 310 310 309 309 306 303 305 306 311 310 313 316 314 314 314 315 312 314 316 319 323 324 321 320 321 318 320 324 327 331 333 335 334 334 335 336 336 337 338 338 339 340 341
311 311 311 311 311 311 311 311 310 310 309 307 309 308 310 308 305 309 314 314 306 310 310 310 315 314 312 312 311 315 318 319 315 317 319 321 319 315 313 312 308 310 307 304 306 309 310 304 302 302 305 306 308 310 312 314 316 317 313 315 315 314 316 318 319 321 326 322 320 321 321 321 323 327 330 333 334 334 333 333 334 335 336 336 337 338 339 341
311 311 311 311 311 311 311 310 310 309 309 309 306 305 303 301 299 299 301 303 305 306 306 307 309 310 309 313 314 314 311 312 315 316 320 325 318 316 311 310 308 306 305 306 306 309 308 303 303 306 307 308 309 309 309 309 315 316 314 313 313 315 313 318 318 320 325 321 319 322 319 320 323 327 330 333 332 331 332 333 334 335 336 337 337 337 339 341
311 311 311 311 311 310 310 310 309 309 309 308 304 302 303 303 305 306 303 298 304 307 306 307 309 308 312 312 314 315 314 310 312 315 319 318 315 313 311 308 307 307 304 304 305 304 303 301 305 307 309 309 309 308 309 310 311 316 314 312 312 313 313 314 318 319 323 321 319 320 318 319 322 326 330 331 331 333 334 334 334 335 335 336 337 338 339 340
311 311 311 311 311 310 309 309 308 308 308 304 302 301 304 307 308 309 306 300 298 305 304 305 304 305 307 311 313 315 308 307 306 312 315 317 312 313 310 308 307 306 303 305 301 302 300 303 306 308 306 306 305 307 308 309 310 312 313 311 310 311 312 309 313 318 320 320 318 319 317 319 321 325 328 331 332 333 335 335 335 336 336 336 336 338 338 339
310 310 310 310 310 310 309 308 308 307 305 303 301 303 309 309 308 307 303 298 299 302 305 307 307 307 308 307 314 312 309 309 310 309 319 316 312 313 310 308 306 304 303 303 304 302 302 305 309 305 305 307 305 306 307 306 305 308 311 313 312 308 313 314 312 317 319 319 319 318 316 317 320 319 322 328 332 332 333 333 334 335 337 338 339 339 340 339
310 310 310 310 309 309 307 307 305 305 305 304 303 307 309 308 309 307 302 303 304 304 311 310 309 310 312 320 316 310 311 311 312 315 318 318 309 309 310 309 308 304 304 303 302 302 303 305 306 305 304 306 306 305 307 307 305 305 307 311 312 312 311 312 315 314 313 313 317 316 309 310 319 319 321 325 327 328 331 331 331 333 334 335 335 336 338 339
310 310 310 310 310 309 307 302 305 304 304 301 305 309 308 308 308 307 305 301 296 305 308 304 311 308 318 311 313 313 312 306 314 316 317 318 319 315 307 306 308 305 302 301 303 304 304 305 305 305 304 304 306 306 307 308 305 303 305 309 311 312 312 313 314 313 309 307 315 319 308 306 316 316 320 324 325 326 329 329 330 331 332 333 333 335 335 336
310 310 310 309 309 308 303 301 306 305 299 301 309 309 308 307 311 306 303 298 294 306 303 308 308 309 314 313 313 313 299 302 314 317 316 321 315 315 310 306 306 305 304 305 302 300 303 304 304 304 305 304 304 304 306 307 306 303 310 310 310 312 312 313 314 312 313 317 317 317 314 308 308 315 321 324 323 324 326 327 328 329 331 331 332 333 335 335
310 310 309 309 308 308 304 304 303 301 302 303 308 308 308 309 309 307 303 290 291 306 306 307 310 314 313 313 315 308 306 310 306 313 317 318 318 311 312 306 307 306 303 304 297 303 304 302 303 302 304 304 303 306 307 308 306 307 308 310 310 312 314 315 314 312 313 312 309 312 313 308 307 314 319 322 319 321 323 325 327 328 330 331 332 332 334 335
309 309 309 309 308 307 308 305 303 302 307 308 308 308 308 309 306 304 297 288 304 304 312 305 313 311 311 313 310 310 309 310 305 309 316 316 317 313 309 308 309 308 306 307 302 302 303 306 305 306 304 302 306 307 308 308 305 307 307 309 311 314 316 315 313 312 311 309 306 310 313 307 307 316 315 320 319 320 322 325 327 329 329 330 331 333 334 335
309 309 309 308 307 307 306 307 303 307 308 309 309 309 307 306 306 297 290 286 306 298 306 307 307 304 309 307 307 310 307 308 309 311 315 312 313 312 308 311 308 306 303 304 306 306 305 310 310 307 305 307 307 308 308 309 310 309 310 309 309 311 313 313 314 313 310 304 307 312 312 310 303 312 315 314 317 321 323 326 328 330 330 331 332 333 333 334
309 308 308 308 303 305 304 301 305 307 309 309 308 306 306 306 299 293 287 295 302 303 307 306 303 305 304 303 301 307 308 308 309 311 309 311 309 309 308 306 308 306 304 303 303 304 305 306 306 307 310 308 309 305 307 311 308 309 308 308 307 307 311 310 309 312 303 300 309 312 312 312 302 307 318 321 325 325 325 325 326 327 329 330 331 332 333 335
307 306 308 306 307 307 300 301 305 309 308 308 306 303 304 294 296 290 290 306 294 300 301 301 303 303 302 304 302 304 305 306 308 308 307 308 306 305 306 304 304 298 298 298 299 301 301 304 305 305 315 308 305 305 306 307 307 308 307 307 302 301 302 297 303 299 300 299 307 309 312 308 307 312 318 321 323 324 327 327 328 328 328 330 331 332 333 335
306 306 306 307 308 306 306 307 306 309 309 307 302 303 297 292 286 294 294 299 295 304 301 304 303 302 302 301 301 303 305 303 307 307 309 307 307 307 308 308 307 304 297 300 299 298 301 303 302 304 305 310 308 302 302 302 305 306 305 305 302 297 296 293 298 301 302 305 308 306 313 306 313 316 321 320 321 323 325 328 329 330 330 331 332 333 333 335
305 306 305 307 307 307 309 311 309 309 305 305 300 299 297 289 288 302 296 299 299 302 303 302 302 303 302 299 301 302 301 305 305 305 307 305 306 303 304 304 306 304 304 300 298 298 294 295 301 302 301 309 307 307 306 305 305 305 309 306 305 303 298 294 297 295 297 301 305 309 305 304 304 309 321 322 324 326 326 325 328 329 330 333 333 333 333 334
305 306 306 307 306 308 309 309 310 309 306 303 296 295 289 289 295 295 296 298 301 302 301 302 301 300 300 301 301 303 303 302 304 304 304 304 302 304 303 304 304 307 304 298 300 299 298 299 303 306 306 307 305 308 310 307 305 307 307 309 305 303 308 299 303 302 302 301 301 305 304 311 310 321 321 323 321 322 323 325 326 326 329 330 330 331 332 333
304 306 307 305 306 310 309 310 309 308 304 298 292 289 288 293 291 298 297 304 303 299 301 302 301 298 298 299 302 301 304 302 303 303 302 304 306 304 306 306 304 305 303 299 301 296 298 296 303 304 303 305 307 308 308 309 299 303 304 301 304 312 308 305 303 302 304 302 300 309 307 310 315 316 318 320 321 322 325 324 323 325 327 330 329 330 332 333
303 304 303 305 306 311 310 310 309 306 303 296 290 287 292 294 299 300 305 302 302 303 300 295 297 297 297 297 299 300 302 303 301 302 301 302 301 304 303 305 307 306 308 307 300 305 298 299 303 303 301 305 308 310 309 309 310 304 300 304 308 310 311 307 298 302 300 296 301 304 303 305 306 303 324 317 318 319 322 324 323 325 328 326 327 331 332 333
301 302 303 305 309 311 311 310 308 305 299 293 288 293 296 292 298 301 303 301 301 301 299 297 298 299 297 297 298 299 301 299 299 301 298 301 300 307 305 305 306 306 307 310 305 303 304 297 301 304 306 307 306 307 306 309 309 307 305 311 304 299 299 310 306 295 295 294 297 302 305 305 308 307 313 315 318 320 325 326 323 324 324 325 328 331 333 335
302 300 299 308 311 311 310 310 307 302 295 289 289 289 297 295 298 299 302 302 301 300 298 298 298 300 299 298 299 299 300 297 299 299 297 300 298 305 305 307 304 307 308 308 305 304 304 298 300 304 304 305 305 304 298 302 306 306 308 307 308 307 307 302 302 308 302 297 296 298 301 301 310 311 314 313 319 326 324 326 325 323 325 326 328 329 331 333
299 295 295 310 311 310 311 308 302 299 292 289 290 290 298 295 297 300 301 302 299 299 297 298 299 298 299 299 299 297 300 300 299 299 298 300 301 304 303 307 306 305 307 308 306 307 302 307 297 301 303 303 299 302 300 303 301 302 303 303 304 306 307 308 307 304 300 299 298 297 296 303 312 317 316 319 322 325 325 323 327 328 326 327 329 329 332 333
301 293 295 310 310 311 309 307 296 292 291 293 293 292 294 294 297 299 300 301 300 302 300 299 299 297 299 298 298 301 299 300 300 299 300 300 300 300 306 307 307 305 305 305 305 306 304 301 298 301 300 299 302 305 305 305 305 304 303 302 304 303 301 298 298 303 303 301 296 298 296 307 314 319 320 321 323 323 326 326 327 327 328 329 329 330 333 333
296 288 294 310 311 310 305 297 297 297 293 292 291 293 292 299 296 297 298 300 300 299 302 300 301 299 299 299 300 299 299 298 299 299 300 298 303 303 305 306 308 307 305 302 303 307 308 307 302 299 301 302 304 306 308 308 308 306 306 304 306 306 307 302 295 300 302 304 305 305 301 304 322 322 320 322 323 322 324 325 324 325 328 329 329 328 333 335
295 292 302 306 311 308 303 296 300 298 293 295 302 300 301 299 299 301 297 299 297 299 298 298 298 297 299 298 298 298 299 296 298 297 300 301 302 305 307 306 307 306 307 306 306 307 312 303 300 301 305 306 307 306 306 305 306 304 305 306 306 303 304 303 303 310 302 304 301 301 299 303 318 325 323 321 328 326 327 324 326 324 326 328 327 328 333 334
296 296 300 309 311 308 300 293 294 296 297 298 297 296 301 300 300 299 298 299 298 297 297 298 299 300 298 301 299 297 300 294 300 299 299 303 302 308 307 306 307 306 306 306 304 310 301 309 303 298 297 300 302 304 304 305 304 303 303 305 306 306 306 307 310 311 303 305 302 300 295 302 316 327 323 321 319 319 320 322 326 325 329 328 328 331 333 335
296 300 298 302 310 307 298 299 296 295 296 296 296 297 299 300 302 300 300 300 303 300 299 298 299 300 299 301 300 300 302 299 298 303 302 302 303 308 308 306 307 309 309 310 317 311 304 305 301 295 292 291 291 292 295 299 301 304 305 304 305 305 306 304 300 305 297 309 308 301 300 311 321 323 320 321 322 322 322 322 323 326 330 329 328 330 334 335
295 289 296 302 304 303 303 303 299 296 295 296 296 298 299 297 302 305 303 300 302 302 301 300 303 302 300 299 298 298 298 302 299 300 303 302 305 308 311 311 310 312 318 320 318 310 308 310 305 304 300 297 300 305 309 307 304 300 302 303 303 304 306 306 310 303 298 305 303 307 308 308 313 315 320 320 323 321 322 326 326 327 328 330 333 333 333 335
298 291 297 293 301 299 298 300 298 297 293 297 293 298 296 299 301 301 307 299 304 302 303 302 301 301 300 300 298 298 299 299 302 301 301 302 304 306 310 310 312 315 324 323 326 311 312 304 305 307 307 306 305 306 307 306 303 303 302 302 304 304 305 304 303 301 316 303 298 310 316 309 312 317 321 324 324 326 327 329 329 330 331 330 330 333 332 333
290 296 299 300 293 291 294 295 298 295 297 298 295 299 296 297 298 298 304 305 304 306 302 302 303 304 304 302 302 298 299 299 301 298 302 303 303 304 304 307 308 317 320 314 321 309 306 301 304 305 304 305 306 306 306 305 305 305 304 304 303 304 305 303 306 307 313 302 300 312 315 312 313 314 320 324 328 327 325 327 327 330 329 330 330 329 329 330
299 298 297 301 293 296 296 296 296 296 297 297 295 297 295 296 296 299 298 300 302 302 304 300 301 302 303 305 303 300 303 297 297 302 302 302 303 303 302 305 310 312 313 312 311 317 309 302 306 304 303 304 305 305 306 304 304 304 304 304 305 304 304 305 306 308 309 310 310 313 316 313 313 315 319 323 328 327 330 330 328 326 325 330 329 330 329 329
292 293 291 297 297 295 295 296 297 297 293 297 293 297 299 299 297 298 300 298 298 301 305 301 303 305 305 306 305 299 301 302 302 300 307 303 303 307 303 305 306 312 313 311 310 312 307 304 311 304 302 302 304 305 304 303 303 302 304 305 305 305 305 305 306 307 310 309 312 311 314 314 318 325 325 329 330 324 323 321 322 328 330 328 329 328 330 329
296 298 298 292 290 293 296 298 295 293 292 294 292 295 296 297 296 297 297 301 299 300 304 302 301 302 305 305 306 306 308 306 306 306 307 307 302 310 306 308 310 308 311 310 311 311 308 307 304 305 301 301 303 303 303 303 303 302 303 304 303 302 302 303 304 309 306 307 310 309 310 310 317 321 319 322 322 324 323 327 329 329 327 330 329 329 330 332
298 300 300 296 289 295 292 294 294 293 289 294 296 295 293 294 296 297 296 302 302 303 302 300 300 299 302 304 304 308 304 304 305 307 308 309 309 308 309 310 310 310 311 309 311 309 311 308 306 304 300 301 305 303 302 302 301 298 300 303 305 304 305 305 306 311 309 310 308 306 307 315 316 321 319 320 319 322 324 325 328 330 331 330 331 331 331 332
Wind_Speed
22 22 22 22 22 22 22 23 22 22 22 21 20 20 19 19 20 20 19 19 19 19 18 18 18 19 18 18 16 16 15 8 7 2 4 13 11 5 9 11 16 15 12 10 12 14 10 10 10 9 8 7 4 4 7 7 3 4 4 2 4 3 9 9 10 11 4 10 12 13 12 11 11 8 6 10 10 9 8 6 6 4 5 10 12 16 16 16
23 22 22 22 22 23 23 23 23 22 21 21 22 20 19 19 20 21 20 19 19 19 18 17 17 18 18 16 15 13 13 5 8 6 15 12 2 8 9 10 13 12 10 11 15 12 13 12 11 13 10 7 3 3 9 5 7 6 2 3 5 6 6 10 11 10 8 10 12 12 12 12 10 12 8 8 10 10 8 7 7 10 11 12 16 17 16 17
23 23 23 22 23 23 23 23 23 23 22 21 22 21 21 20 20 21 21 20 19 20 19 17 17 18 16 15 13 10 10 5 5 9 3 6 3 7 10 8 14 16 14 9 11 11 11 13 13 14 9 5 5 4 6 3 8 4 3 5 5 8 5 9 11 13 5 14 14 14 12 11 11 9 9 8 12 9 10 10 9 12 14 16 18 18 17 16
23 23 23 23 22 23 23 23 23 23 22 22 22 22 22 21 20 21 21 22 20 19 19 18 18 16 16 14 11 10 5 6 6 2 1 2 4 3 11 13 13 16 4 5 8 9 1 6 15 13 7 6 3 2 6 4 6 4 5 6 2 6 6 8 12 12 9 15 14 13 12 11 13 9 10 12 12 10 8 11 14 15 17 18 19 19 17 17
22 22 24 24 23 24 24 24 24 22 22 23 22 23 23 23 22 21 20 21 22 20 19 18 17 15 14 11 8 5 4 6 1 1 2 3 4 1 8 13 15 11 10 4 6 3 7 11 12 3 3 5 2 3 4 5 3 4 6 6 3 5 7 10 14 13 12 12 14 13 16 13 11 9 10 16 12 11 12 13 12 15 16 20 21 19 18 17
23 23 23 23 24 24 24 25 24 24 24 24 23 24 24 24 25 22 20 20 20 20 19 18 16 15 13 11 8 2 1 5 2 3 2 8 8 5 6 12 15 10 8 10 9 8 9 5 9 7 4 4 7 7 2 3 4 6 5 4 5 9 7 8 12 13 16 14 14 15 12 13 14 9 11 18 6 4 2 13 14 17 17 18 19 19 18 18
23 23 24 23 24 25 24 25 25 25 24 24 25 24 26 25 24 23 23 20 20 20 19 17 15 13 10 8 2 2 4 11 8 3 10 9 8 7 3 10 15 12 12 11 9 11 9 8 8 6 5 3 2 5 3 4 3 5 6 2 5 7 8 12 14 15 15 19 17 12 12 15 14 10 11 14 1 5 7 13 15 16 17 18 19 19 19 19
23 23 23 24 24 25 25 25 25 25 25 24 26 26 26 25 25 24 23 22 21 20 19 16 13 10 8 3 1 1 1 9 12 3 3 8 6 8 9 7 11 11 13 14 14 12 9 10 12 4 5 7 4 7 3 3 4 8 7 4 2 6 6 12 14 16 16 12 12 13 15 14 13 7 12 12 2 4 12 15 16 17 18 18 18 18 17 18
23 23 24 24 25 25 26 26 25 24 25 25 26 26 27 26 25 26 25 23 20 19 18 13 10 7 0 1 1 6 9 7 3 1 5 7 5 4 4 6 4 12 9 6 10 9 10 7 6 8 5 7 4 8 3 4 6 6 7 1 2 7 9 13 14 15 14 9 12 13 9 9 7 10 11 6 4 8 14 15 17 18 18 18 18 18 17 16
23 23 24 24 25 25 26 26 25 25 25 27 26 26 25 25 26 25 24 23 21 19 15 11 7 7 3 3 2 6 6 2 1 3 5 5 3 6 5 6 8 6 9 8 5 11 11 6 8 6 3 3 5 3 3 5 1 4 1 2 5 6 11 13 17 14 13 12 18 16 11 10 8 9 6 6 9 12 14 16 16 17 18 17 16 15 16 17
24 24 25 25 26 26 26 26 25 26 26 28 26 26 25 27 25 25 23 22 20 17 12 8 7 6 4 3 5 11 1 2 3 4 4 3 3 3 5 6 6 6 3 3 6 7 4 7 3 4 2 3 7 4 3 0 2 3 7 9 6 8 7 11 12 15 12 8 12 11 10 8 8 6 5 11 11 15 16 16 17 16 15 14 16 15 14 13
24 25 25 26 27 27 27 27 27 27 27 29 29 27 27 26 26 25 23 21 18 11 6 5 9 5 1 4 9 11 2 1 4 2 1 2 4 2 7 7 8 7 8 9 6 7 4 4 5 3 3 6 6 2 3 1 4 10 11 6 7 9 9 10 15 15 14 10 11 13 11 6 8 10 6 13 12 14 15 16 17 16 14 14 14 13 13 13
24 25 25 26 26 27 27 27 28 28 30 30 30 26 26 27 26 24 22 17 10 5 2 6 7 3 2 6 10 11 6 3 4 5 6 4 2 1 4 6 7 8 6 8 10 5 5 4 1 4 2 4 4 1 3 4 5 6 4 11 9 8 6 7 4 12 10 9 17 14 6 10 14 8 9 14 14 14 13 14 15 13 13 12 13 12 12 11
24 25 25 26 26 27 27 28 30 29 32 30 29 28 28 26 24 22 18 14 9 4 5 8 4 2 2 8 4 2 4 2 3 7 8 3 7 4 2 4 4 4 3 2 1 3 4 1 2 2 2 4 3 2 7 5 2 6 5 6 8 9 7 8 8 12 9 7 15 14 9 5 10 8 10 13 16 18 16 15 16 13 13 12 12 12 12 13
25 25 26 26 27 27 27 29 28 32 31 29 30 29 28 24 23 19 14 6 1 6 8 5 1 2 3 8 6 8 7 2 4 7 3 6 7 5 6 3 5 3 0 1 1 1 3 5 3 4 4 1 1 6 7 4 3 7 8 4 3 9 7 8 3 15 12 7 13 11 9 6 7 11 14 14 15 17 15 16 16 15 14 14 12 13 12 13
24 26 28 28 27 28 27 26 30 30 30 30 29 31 28 22 17 14 9 2 5 7 6 2 3 2 5 10 1 3 2 3 2 2 2 6 7 3 7 4 3 2 2 1 1 2 2 4 4 2 4 2 5 6 7 6 5 2 4 6 9 4 8 7 8 10 3 14 11 14 6 2 4 11 15 15 17 17 15 14 14 15 15 14 13 12 11 11
23 26 27 28 28 29 29 27 29 31 30 30 31 29 23 16 10 5 5 5 3 3 3 1 1 2 3 2 5 5 3 3 1 1 2 5 6 8 12 7 5 4 3 3 2 0 2 4 1 2 3 4 3 9 9 6 6 8 1 5 6 11 9 7 9 11 7 16 13 13 8 5 3 11 15 16 18 17 14 16 15 14 13 14 12 12 12 12
23 25 27 28 29 30 30 26 31 30 30 30 28 23 19 16 10 5 3 3 2 2 2 1 2 3 10 0 5 3 2 4 2 3 2 1 5 10 7 5 4 7 6 4 2 6 0 4 1 5 5 4 7 10 11 10 10 10 7 6 4 3 15 11 11 13 11 16 14 15 13 10 4 10 14 16 17 17 16 15 16 15 14 13 12 12 13 12
27 26 26 27 29 30 29 28 31 28 28 32 25 19 7 2 1 2 1 2 2 2 2 4 3 5 1 2 3 5 4 1 4 2 0 5 5 3 4 5 10 11 5 4 3 5 2 2 1 5 11 9 11 12 10 7 12 15 14 11 9 10 11 11 8 8 15 15 14 16 16 15 7 11 13 14 17 16 15 14 13 14 14 13 12 12 12 13
27 27 26 26 28 31 30 30 30 27 27 22 12 5 3 1 1 2 2 3 6 8 7 2 6 6 14 13 10 5 5 1 3 1 2 2 9 6 4 4 5 3 7 8 5 7 5 9 10 10 10 11 11 10 11 8 11 5 1 5 12 12 8 6 6 7 13 9 14 14 13 9 9 12 14 15 15 14 13 15 13 13 13 14 13 14 14 14
27 27 29 27 26 27 29 30 26 26 25 11 9 3 4 2 3 4 8 12 11 9 13 14 15 16 13 1 2 4 6 2 3 3 4 4 5 9 3 4 6 6 5 3 7 3 5 9 11 9 10 13 12 8 6 3 9 13 9 7 6 9 10 10 11 9 11 11 10 6 7 10 5 8 11 13 14 17 18 16 15 16 15 13 16 16 16 15
26 26 25 26 23 27 29 28 25 25 18 5 4 4 3 3 3 4 2 9 4 11 11 16 8 13 12 15 8 2 2 5 9 9 3 6 6 7 3 4 8 8 4 5 3 5 9 13 9 9 6 5 6 7 8 9 10 12 11 8 6 7 4 5 6 8 9 10 9 5 11 10 4 7 10 15 18 17 17 18 17 17 16 14 14 16 15 13
27 26 25 25 25 27 30 25 27 19 5 4 5 1 2 3 5 4 3 7 13 7 13 13 10 15 14 8 9 8 11 12 9 6 8 9 4 6 7 6 7 5 5 7 10 7 9 10 8 5 5 9 4 5 7 5 6 8 9 8 10 6 9 7 7 10 10 8 5 5 9 7 2 6 11 14 15 12 12 14 13 14 16 17 18 16 15 16
28 28 25 24 25 26 30 27 22 6 3 8 6 4 3 3 5 6 4 5 10 4 8 7 9 6 8 5 6 15 14 6 7 8 5 11 10 4 7 8 7 5 8 8 8 10 6 4 8 7 9 11 10 9 11 9 8 5 9 12 7 8 11 9 7 6 9 4 4 5 5 7 8 8 10 12 14 12 12 13 13 13 14 15 14 15 15 17
28 29 27 26 23 25 30 27 4 4 9 8 5 5 3 4 3 4 2 5 5 7 3 3 4 6 6 3 10 11 8 1 11 3 8 11 7 8 6 3 5 7 7 6 4 6 8 1 6 12 9 10 9 9 12 10 8 6 7 8 10 12 11 6 13 11 7 7 8 9 5 11 9 15 14 9 12 15 13 14 17 16 15 14 15 15 15 16
28 27 27 24 25 24 31 8 2 8 13 4 1 2 3 3 4 1 2 2 7 3 2 2 4 1 4 4 5 5 7 7 10 7 6 7 11 8 4 5 3 9 7 7 6 4 5 4 10 13 12 10 11 9 10 12 7 8 8 9 7 10 11 12 14 11 7 8 11 14 12 8 4 10 12 11 14 17 13 16 17 16 15 16 15 15 16 17
28 27 24 22 23 20 11 3 5 12 5 2 2 5 5 5 3 4 2 1 5 2 2 3 3 1 2 6 9 7 5 2 3 5 6 4 12 0 12 7 2 4 3 4 1 7 4 6 6 5 13 13 10 12 9 11 8 9 4 14 8 10 12 15 15 14 5 3 6 14 11 11 9 7 10 12 14 14 15 17 18 17 18 19 18 18 17 17
28 26 23 20 18 13 7 9 11 7 7 1 3 6 8 6 1 1 2 3 3 2 1 3 2 1 2 5 9 7 3 1 3 6 13 7 9 1 9 12 11 10 6 6 12 1 8 8 10 9 9 10 14 9 10 12 10 3 4 13 13 14 14 15 13 10 3 7 4 8 4 6 8 4 1 12 12 14 18 20 20 20 20 20 20 20 20 19
27 26 24 21 20 15 10 7 4 8 2 4 7 8 6 5 4 2 1 3 1 1 1 2 3 3 4 2 8 7 3 2 2 3 3 2 4 3 10 11 10 12 10 13 9 3 3 10 12 10 9 11 4 3 12 13 13 1 7 6 5 4 7 13 10 9 4 6 9 9 11 8 11 3 4 7 10 14 18 21 22 21 22 20 20 20 21 18
26 27 26 20 17 3 2 5 12 9 5 8 9 7 6 3 3 4 3 7 4 1 2 1 3 1 1 6 5 6 8 3 0 3 8 6 10 3 5 2 9 10 7 3 10 6 1 4 4 8 11 8 8 3 10 16 2 12 12 11 8 5 4 4 4 3 4 7 10 11 15 12 10 8 9 9 10 15 14 12 14 16 18 19 19 20 19 17
25 26 25 18 10 5 4 6 7 8 7 6 8 5 2 1 3 4 7 3 3 3 2 1 2 1 3 2 3 3 7 4 2 7 7 3 6 0 7 6 3 6 5 7 8 4 6 3 5 4 3 3 7 5 4 3 9 15 6 8 10 6 4 4 2 2 7 7 7 8 15 15 11 7 7 14 12 14 14 15 17 19 21 20 20 19 20 18
27 28 27 17 13 7 6 5 6 3 2 7 8 2 3 5 2 8 4 3 4 1 2 2 1 1 2 2 3 2 4 4 5 8 10 10 10 10 10 8 10 7 10 9 9 2 8 11 1 3 2 11 8 9 6 5 5 7 8 10 11 4 4 6 3 7 8 8 1 1 9 4 12 14 7 7 12 11 12 13 14 18 20 21 21 21 18 17
27 28 30 14 8 9 15 11 0 3 9 10 5 2 5 4 9 8 2 5 2 2 3 2 1 3 4 3 2 4 2 5 6 8 10 7 11 12 11 11 15 11 9 8 7 8 7 1 4 5 2 7 11 14 8 7 8 9 13 11 11 7 9 6 4 2 1 6 4 2 11 10 2 10 18 16 18 18 16 13 10 8 14 18 18 18 17 16
27 28 15 6 7 11 7 4 6 6 5 2 3 3 2 5 6 7 15 8 3 1 1 1 4 4 3 5 5 1 3 3 6 7 10 8 11 10 7 1 12 8 3 6 13 10 8 9 13 10 8 6 12 14 11 5 11 10 4 12 8 8 7 7 5 8 7 5 4 4 7 5 9 5 4 13 15 10 9 13 11 9 10 13 15 14 16 17
29 22 12 10 6 8 12 9 4 5 4 5 4 7 9 10 1 6 9 7 4 3 5 3 5 7 10 3 2 1 2 1 2 3 8 9 10 9 10 10 8 8 5 9 3 4 15 8 2 10 2 8 11 3 7 9 8 9 4 2 7 11 6 10 5 8 7 4 3 7 6 4 8 5 8 5 7 8 8 11 11 13 11 11 12 15 16 17
19 9 9 5 3 2 6 6 8 7 6 6 7 7 15 7 7 5 4 5 2 7 3 5 2 8 7 5 0 1 2 2 3 3 2 8 8 11 10 9 11 14 10 11 6 6 3 9 4 2 1 9 11 8 7 10 12 7 5 13 7 5 10 5 4 4 3 1 7 5 4 5 4 11 16 12 8 14 7 7 10 14 12 12 13 15 17 16
10 11 6 4 4 2 4 8 8 7 3 6 8 12 8 4 3 4 1 4 2 3 4 8 3 7 4 3 3 1 3 2 2 1 4 2 4 6 7 7 9 15 16 12 3 4 8 5 8 9 12 9 6 11 11 12 2 7 11 8 6 4 3 5 8 3 6 9 4 5 8 6 4 5 3 2 8 13 12 11 13 9 10 14 15 14 15 17
11 8 8 6 3 1 5 8 9 5 4 8 13 9 3 10 3 6 1 2 1 2 2 7 2 2 1 2 3 1 1 3 1 2 2 6 3 6 10 6 9 14 14 14 10 4 5 7 7 11 14 10 5 4 9 10 3 8 6 13 12 6 10 1 2 7 7 8 6 5 9 9 8 7 1 6 6 8 9 10 9 9 13 16 14 14 14 17
8 3 4 2 3 4 6 8 5 6 7 8 10 10 4 6 0 5 4 2 1 2 5 3 4 3 2 3 0 2 2 3 2 3 3 4 6 4 10 6 10 14 16 13 11 4 7 9 3 2 10 4 7 10 16 14 4 4 4 12 3 4 7 8 7 1 5 9 5 7 6 8 8 6 7 12 10 10 9 9 9 14 14 13 13 15 16 17
7 4 2 3 3 5 9 7 4 2 5 12 9 9 1 8 8 6 5 7 6 5 4 4 4 4 3 3 2 5 0 4 3 2 2 1 6 1 4 4 4 10 13 16 11 10 6 5 9 3 1 4 10 9 16 15 13 8 8 9 5 3 3 1 2 7 8 8 7 8 8 4 4 7 11 12 12 11 11 13 10 8 12 15 15 15 14 16
4 2 3 3 4 6 4 3 3 7 6 2 2 5 2 4 1 3 6 6 4 3 3 5 5 8 3 4 6 3 4 3 3 6 3 2 4 5 8 8 6 5 5 8 11 7 6 7 11 4 7 10 9 8 11 15 15 12 12 11 11 8 8 11 10 3 2 7 3 7 13 3 5 5 10 12 12 13 12 13 11 12 9 10 10 14 13 13
4 5 0 2 5 6 2 3 5 4 4 6 6 3 6 5 7 6 4 2 9 6 2 5 5 5 4 6 4 2 3 5 6 6 5 8 6 7 2 2 4 9 9 7 10 11 7 4 9 10 11 12 12 6 7 9 12 15 15 12 14 12 9 10 12 6 2 3 3 2 5 6 5 8 11 12 12 15 12 5 9 10 11 4 7 11 11 12
3 7 9 8 8 3 4 5 3 4 8 5 4 8 5 7 4 1 5 4 5 5 4 7 7 8 9 8 6 9 8 7 6 8 5 8 13 12 4 5 6 4 5 5 10 8 5 5 7 10 7 2 1 3 1 1 9 14 16 15 13 17 16 13 10 5 8 6 5 4 7 5 4 1 5 9 8 6 4 5 10 10 7 3 6 9 11 12
5 8 6 2 2 5 4 4 3 5 6 9 11 12 6 6 3 4 7 5 6 5 7 6 4 12 7 9 10 11 8 8 8 12 10 7 6 6 10 11 6 4 7 5 8 10 8 2 7 6 5 6 10 7 6 1 4 9 9 12 15 15 16 6 5 3 10 11 12 7 12 6 5 1 2 4 9 11 12 10 7 9 7 5 6 8 9 11
8 6 6 5 2 5 4 1 3 4 3 5 5 6 7 7 7 12 9 7 3 4 3 5 7 4 7 6 9 9 10 13 6 8 10 4 7 2 5 6 6 7 10 7 5 10 10 8 10 12 13 13 12 15 16 12 10 4 2 4 9 17 11 6 10 4 10 5 12 11 10 4 2 0 3 6 5 10 12 12 7 8 10 6 7 8 8 10
3 6 3 2 2 4 6 3 2 4 3 5 5 5 6 10 6 7 10 13 12 9 9 5 4 6 9 7 9 10 11 10 12 2 4 5 6 4 2 4 6 6 7 12 8 9 3 4 11 11 13 14 10 6 2 4 5 11 8 11 9 13 13 13 3 9 12 6 9 8 8 6 7 8 8 8 7 11 14 10 9 11 10 7 6 6 8 9
4 3 4 4 6 3 1 1 2 4 4 5 3 3 4 6 5 7 11 9 10 13 7 10 9 8 7 11 11 10 11 12 13 13 12 10 4 3 5 5 4 7 13 11 11 7 2 5 11 15 15 15 14 13 10 14 14 14 15 14 14 14 15 16 12 12 7 6 11 7 7 11 9 9 11 11 10 9 10 10 8 8 9 8 7 6 7 8
2 2 2 3 3 4 7 1 7 9 7 3 5 4 7 8 6 6 2 8 3 7 9 5 12 15 12 12 8 9 10 11 10 12 7 8 10 11 12 9 8 4 5 5 9 10 6 10 12 14 16 17 18 18 12 11 16 15 17 16 17 17 16 18 15 11 12 12 13 8 10 11 10 12 11 13 12 13 13 15 14 4 1 4 8 11 12 12
4 5 4 6 4 4 4 9 12 9 9 5 4 5 8 9 9 4 3 5 4 5 12 7 10 13 15 14 10 7 5 8 10 7 7 7 10 7 7 9 8 3 3 2 5 1 3 7 4 10 14 15 16 16 10 13 10 12 16 18 18 19 19 20 18 15 15 11 12 11 15 16 14 13 12 13 13 11 8 3 1 6 11 9 11 11 13 13
3 3 2 5 4 9 9 6 4 6 6 6 5 5 4 5 6 7 4 3 4 3 4 10 4 3 3 4 6 9 9 11 8 7 6 11 7 6 8 9 4 3 1 1 4 1 4 2 4 6 7 12 15 14 11 14 15 16 14 14 16 17 18 20 19 16 13 13 6 1 7 9 8 6 7 3 3 1 1 7 11 10 8 10 12 12 12 14
3 4 5 5 8 6 6 4 3 5 6 4 5 4 4 3 3 8 9 7 10 4 2 1 5 7 3 5 7 10 8 4 4 8 7 5 8 3 6 1 2 5 2 3 3 2 3 1 2 2 6 7 7 10 13 14 16 18 20 17 11 10 12 8 8 5 8 9 10 8 5 6 7 9 10 8 6 6 9 10 9 8 11 11 12 13 13 14
3 3 4 5 5 4 6 6 6 4 5 3 3 3 4 5 8 9 8 5 8 10 7 6 7 7 6 4 6 4 2 7 10 11 9 7 8 10 6 7 5 5 1 2 1 5 2 1 0 2 4 4 1 3 8 11 8 11 15 16 16 13 10 11 11 10 14 14 11 10 10 8 13 9 9 10 11 11 10 9 8 8 6 10 12 13 13 13
Wind_Direction
352 352 351 349 346 345 344 343 341 340 338 337 335 333 329 327 324 323 323 322 321 323 324 324 324 322 326 324 322 327 337 330 323 335 308 248 223 193 185 123 157 150 146 117 118 132 156 165 161 151 161 174 211 218 184 196 211 200 205 185 195 184 196 175 183 183 120 154 160 168 170 152 152 159 120 126 128 134 138 120 111 86 112 124 124 135 145 148
350 350 349 348 346 343 342 341 339 338 337 334 332 330 327 324 320 319 322 322 320 319 321 321 322 322 324 323 323 327 334 300 298 277 235 256 231 230 193 139 159 160 135 141 156 169 153 180 170 162 157 196 171 209 141 182 183 203 144 213 240 174 202 173 190 169 152 168 159 165 165 164 158 153 157 154 147 151 139 125 125 107 114 117 132 139 149 155
349 348 347 346 344 342 340 339 337 336 334 332 330 326 325 320 319 321 320 319 318 317 317 321 320 321 322 322 317 330 337 298 262 265 341 87 267 264 191 148 158 164 167 161 182 182 181 180 162 163 185 198 177 185 197 145 184 211 233 224 233 195 188 195 171 176 188 142 156 162 167 167 149 160 160 170 158 173 171 148 150 144 143 143 142 149 154 162
349 346 345 344 342 341 339 337 336 334 331 329 326 323 321 319 317 320 320 319 316 314 315 318 319 320 321 317 318 325 299 280 272 246 92 275 9 107 176 166 163 175 163 167 177 190 175 129 158 174 165 220 154 262 191 166 208 134 219 235 239 160 163 203 186 171 153 157 157 159 156 159 163 160 170 156 152 195 196 176 167 161 153 150 150 154 159 164
347 346 344 342 341 339 338 336 333 331 328 325 323 320 319 316 318 319 317 315 315 313 313 315 318 319 319 307 322 328 303 296 340 257 166 340 331 89 176 183 172 178 187 155 133 133 172 152 164 206 192 186 167 162 234 173 245 131 226 245 121 160 215 179 183 158 149 153 151 155 162 172 149 160 179 168 174 190 197 177 162 154 154 151 154 159 163 168
345 344 343 341 339 339 336 334 332 329 327 324 321 320 317 319 319 315 314 313 312 310 311 313 314 316 315 310 305 269 301 300 352 297 359 21 26 357 214 183 177 167 162 161 168 156 157 170 177 179 183 182 179 195 148 189 154 227 225 247 197 178 200 156 162 155 145 150 159 171 167 135 162 178 184 184 201 17 178 163 155 153 157 155 152 158 167 171
345 343 342 341 338 337 336 333 331 329 324 323 321 319 318 319 316 314 314 314 312 310 310 310 310 312 310 307 251 234 212 261 318 239 12 35 29 14 351 179 162 164 172 155 162 156 190 160 196 178 165 166 183 220 149 181 195 237 250 109 220 185 209 160 164 158 154 161 175 164 144 158 168 174 178 193 220 309 163 153 148 148 148 153 157 167 172 176
343 342 341 339 338 336 335 333 330 326 324 321 321 320 319 317 316 314 313 311 314 309 309 306 304 303 304 288 224 231 162 251 250 14 23 73 65 68 76 120 158 166 176 172 162 167 160 168 185 139 185 193 163 192 128 178 176 213 243 229 245 190 185 166 157 166 165 154 140 151 164 174 169 157 157 195 356 140 146 142 143 149 153 160 163 170 174 178
343 341 340 339 337 335 334 331 329 326 323 321 320 319 319 317 316 315 313 311 308 308 302 299 291 287 28 302 212 300 256 227 249 88 94 105 106 72 129 116 177 175 175 170 173 151 166 194 175 190 197 194 161 183 155 223 211 203 231 159 186 193 168 161 158 158 150 134 146 152 167 146 140 120 172 165 131 139 140 141 148 153 158 165 169 171 173 180
342 341 339 338 337 335 334 330 327 325 321 320 320 319 316 317 315 313 310 308 308 307 297 285 265 248 211 176 142 268 283 135 147 94 123 132 130 78 56 131 159 165 156 175 157 160 193 174 188 193 142 77 167 160 124 205 285 180 158 231 215 173 152 162 154 156 152 153 160 163 154 151 146 163 184 183 151 146 146 148 154 159 165 169 170 173 176 179
342 340 339 338 337 335 333 330 328 323 322 321 319 316 315 315 314 311 309 306 306 305 295 259 241 199 189 214 207 256 155 128 114 110 121 129 72 33 138 149 149 170 190 174 186 187 170 166 168 121 265 191 167 159 207 209 125 138 129 93 97 132 136 153 140 145 142 136 162 149 129 132 156 216 212 163 157 156 153 154 159 165 169 171 172 175 179 184
341 340 339 337 336 334 333 331 328 324 322 321 318 315 315 313 312 310 308 306 305 307 297 231 186 183 237 182 225 234 155 316 132 112 304 304 314 255 173 178 155 171 174 168 198 223 170 141 160 169 188 140 176 105 216 164 158 147 143 100 106 125 124 162 157 160 158 141 152 125 107 164 185 212 143 147 155 162 156 159 164 167 171 173 175 176 183 190
340 340 338 336 336 335 333 331 328 325 323 320 318 315 314 313 311 308 306 306 308 302 242 185 164 215 228 240 230 243 243 238 280 303 278 203 167 84 188 190 167 167 207 168 185 197 140 131 139 151 121 174 147 236 102 145 114 142 120 122 131 132 148 168 133 157 151 147 154 151 192 208 205 188 143 150 157 159 158 163 171 170 172 177 180 183 186 188
341 340 338 336 335 334 333 331 328 325 323 320 317 314 314 311 310 306 305 293 296 242 209 164 157 186 218 255 267 219 234 287 294 283 268 133 182 169 164 228 212 179 192 243 28 101 160 350 112 63 131 207 139 207 144 97 183 168 120 147 150 156 177 164 174 161 157 151 168 180 223 206 188 168 155 161 160 165 168 172 175 176 177 179 185 188 191 196
340 340 338 335 335 333 333 331 329 325 322 320 316 313 313 311 308 306 298 298 174 161 160 128 217 205 214 266 262 276 243 159 238 244 186 146 147 113 190 187 197 201 287 282 28 82 151 140 146 176 177 97 111 147 113 137 139 139 151 179 176 187 131 159 163 178 167 162 188 191 242 243 179 173 165 168 170 172 174 175 177 178 180 182 185 190 193 197
339 339 338 335 334 334 332 331 328 325 322 318 316 313 311 309 305 301 293 238 121 146 152 202 191 252 310 287 20 354 171 208 186 273 200 189 170 153 163 164 118 96 164 194 71 88 65 167 183 197 134 121 169 153 136 136 162 190 254 160 182 181 145 160 192 193 187 156 186 196 216 154 210 169 168 172 173 177 175 180 182 183 184 184 188 191 193 192
338 339 337 336 334 333 333 330 329 326 322 316 316 309 309 303 301 311 105 124 100 127 198 72 118 233 277 82 308 266 249 224 311 168 163 215 190 139 128 135 150 121 129 89 81 201 70 181 65 116 340 173 152 157 154 179 163 190 244 192 168 175 150 180 145 196 167 166 185 211 238 220 55 169 170 176 178 179 180 180 184 186 188 190 190 193 195 199
338 339 337 335 334 333 332 330 329 326 322 317 315 304 302 303 296 287 153 88 99 145 250 242 240 284 247 13 245 223 67 285 280 296 276 256 166 155 144 141 113 127 133 106 69 180 65 179 316 189 162 154 166 174 185 187 175 181 183 181 182 200 175 168 174 189 176 189 189 197 225 232 164 173 179 181 183 183 186 183 184 187 190 191 194 197 199 201
338 338 336 335 333 331 331 330 328 326 324 318 307 287 291 111 147 210 245 167 190 177 240 166 184 194 232 146 338 310 275 280 298 294 230 119 120 140 68 86 129 139 142 172 141 192 129 136 146 173 188 176 182 189 199 177 181 185 186 192 172 177 189 190 157 144 181 183 203 195 211 216 170 181 182 183 187 190 191 188 188 191 192 192 195 199 202 205
338 337 335 335 333 329 329 329 327 326 327 326 339 353 187 278 190 163 198 226 230 233 274 237 217 298 303 286 271 258 266 146 271 208 94 127 134 172 119 123 81 87 143 192 133 209 157 185 193 197 185 175 176 185 197 183 186 170 135 197 187 186 163 134 145 134 181 195 215 212 224 227 190 187 188 186 184 196 196 192 192 192 192 194 197 202 207 210
336 336 335 334 331 328 326 327 325 325 324 310 298 303 45 343 333 327 324 268 254 255 250 251 219 229 236 18 63 21 357 279 216 240 178 148 125 164 177 166 140 169 188 137 156 103 202 206 205 194 176 178 177 181 113 112 180 179 188 196 193 195 190 175 167 148 174 198 216 234 260 253 232 194 192 185 188 201 200 196 197 194 194 195 199 202 207 213
336 335 334 333 330 328 324 325 324 324 319 290 314 49 107 34 0 318 309 306 240 221 230 240 239 256 255 255 262 28 346 287 264 231 220 186 135 212 164 203 161 197 121 141 112 165 198 213 188 191 193 183 162 162 171 163 177 188 196 190 193 195 76 73 157 142 161 197 228 162 231 242 223 212 197 196 198 206 202 199 197 191 193 198 201 205 206 206
335 334 333 332 333 327 325 321 322 325 316 1 349 339 97 41 331 317 264 272 275 219 234 241 247 245 259 250 237 177 216 218 242 206 188 179 148 218 141 181 184 156 136 177 193 169 205 218 191 157 142 152 132 164 163 158 164 183 193 177 213 145 184 181 171 162 166 187 233 173 231 245 224 217 218 214 212 214 213 211 206 199 196 198 201 200 202 204
334 333 331 332 333 328 322 322 314 285 349 321 278 216 78 350 360 346 204 260 304 297 210 217 219 244 239 237 185 181 192 210 188 238 147 168 170 135 159 175 166 169 192 179 210 202 200 65 166 144 177 178 161 169 164 177 184 191 196 201 184 150 200 223 158 149 135 106 89 121 230 252 214 213 216 217 216 222 216 212 214 212 213 211 207 205 204 206
333 332 332 331 333 330 320 318 325 346 311 299 227 254 273 358 358 3 236 281 243 261 154 244 181 236 230 73 141 180 209 297 220 208 168 179 119 151 182 129 157 199 188 163 148 232 232 255 145 157 176 200 155 172 186 176 186 185 226 209 181 178 187 120 128 139 177 196 201 184 251 249 201 213 219 192 201 218 214 213 215 214 214 213 214 211 209 214
331 330 331 330 332 337 312 302 41 340 317 305 119 135 9 337 360 255 234 15 288 292 275 212 176 137 135 134 157 163 132 225 214 209 177 187 159 157 109 172 219 203 159 155 200 239 227 121 179 168 172 188 187 185 189 187 186 188 199 201 180 176 165 152 159 167 180 213 192 190 220 247 137 217 209 192 202 213 210 218 217 214 214 212 213 213 210 210
329 328 327 328 333 343 353 352 5 330 311 97 79 347 337 339 324 183 250 210 270 197 200 67 207 167 233 162 170 166 199 219 51 141 196 188 181 167 181 163 125 47 120 134 84 215 177 164 180 188 176 182 187 200 185 198 170 204 130 175 159 154 161 164 172 192 200 90 92 189 214 253 270 232 192 194 206 212 215 220 220 216 213 214 213 213 212 209
328 323 324 325 326 341 276 288 319 313 251 27 354 337 327 338 231 241 243 350 273 100 204 190 263 110 247 167 185 205 19 88 179 188 200 185 183 132 228 170 186 160 151 172 212 105 179 176 189 175 192 188 201 187 149 191 190 187 160 166 170 172 173 171 182 201 156 187 184 190 125 243 254 245 109 179 205 216 222 222 218 216 215 213 213 213 213 212
325 320 319 325 319 307 269 238 276 253 262 357 335 326 332 307 243 263 26 221 188 245 46 170 353 156 66 108 213 259 326 245 313 52 109 78 283 139 201 176 174 163 167 187 222 115 235 202 189 181 185 206 181 170 168 176 197 84 107 89 91 97 152 176 192 190 133 207 220 189 177 220 251 184 134 183 220 222 222 221 220 213 211 211 211 213 214 212
321 317 317 322 322 292 242 245 232 239 310 322 306 304 311 260 183 195 119 233 16 270 193 81 209 175 126 159 224 235 246 249 266 88 161 175 187 271 25 88 160 156 174 222 231 215 106 353 185 187 201 194 185 175 179 184 130 128 123 114 102 90 110 62 38 108 128 225 233 187 188 205 256 232 182 160 214 213 221 220 220 217 214 215 214 212 210 207
318 314 312 320 305 304 299 259 251 257 251 267 272 268 262 191 233 166 212 209 343 244 10 264 146 202 138 169 295 157 238 260 244 149 150 190 154 156 132 114 47 168 162 183 211 208 257 149 158 215 199 146 189 154 222 210 138 155 141 136 119 83 108 104 89 180 204 226 242 205 194 205 231 243 173 212 213 209 208 213 208 206 208 211 212 213 212 206
317 314 309 311 282 249 206 252 132 81 61 320 311 281 199 201 315 212 206 98 248 114 175 123 22 33 295 157 224 187 191 192 202 174 170 184 171 178 181 180 166 169 200 182 205 107 231 222 201 249 206 180 174 201 168 173 187 198 149 153 182 157 171 183 151 196 207 222 120 141 159 201 232 254 247 208 240 241 228 229 215 202 206 209 210 207 205 200
318 312 308 293 254 211 232 244 4 333 342 346 336 251 201 197 233 173 258 179 244 17 123 272 64 297 295 252 211 241 88 235 163 200 173 175 186 191 181 188 174 185 202 168 198 181 216 263 231 231 234 201 188 200 161 192 189 186 181 165 183 166 190 191 174 12 247 270 210 198 175 234 279 266 260 264 250 232 229 235 243 223 206 206 208 205 203 198
317 313 308 268 233 222 240 222 247 293 298 259 205 180 230 223 237 155 205 209 223 64 82 101 300 286 194 323 327 287 248 200 175 187 186 170 193 189 196 277 188 166 191 146 206 188 207 204 221 180 219 143 204 220 187 169 165 197 172 176 196 174 187 189 170 200 207 215 108 168 169 216 181 202 218 242 263 279 225 228 227 218 216 212 212 208 207 205
316 300 282 285 255 239 231 225 202 197 183 181 170 205 201 220 112 183 216 212 257 300 271 122 307 344 304 182 319 173 288 83 52 148 190 164 194 196 185 186 204 194 119 183 167 178 217 234 65 196 222 166 198 207 167 148 184 188 181 223 199 205 118 224 158 208 186 165 159 171 226 168 209 342 295 256 272 265 238 224 202 214 201 195 196 200 201 202
311 312 302 266 265 264 186 190 179 181 180 177 188 203 221 182 199 140 225 191 194 243 317 314 2 287 271 292 262 184 173 258 65 211 239 215 177 197 185 179 186 188 172 210 135 201 95 225 166 172 299 191 192 151 201 164 212 150 162 210 205 117 179 83 67 29 63 204 233 153 249 242 294 287 268 262 250 259 243 233 214 220 196 178 197 201 199 196
324 323 326 309 275 199 164 159 165 163 206 207 192 226 209 267 223 204 268 192 203 119 140 238 208 209 217 231 168 119 5 246 112 294 196 138 256 218 174 203 182 188 198 186 189 227 192 198 173 179 206 225 204 190 188 211 159 119 206 194 81 18 339 181 220 120 215 223 211 174 211 232 197 245 176 184 228 247 235 221 220 210 175 194 204 196 189 192
321 305 269 272 298 70 140 155 149 171 193 194 219 230 147 228 191 233 46 138 163 139 164 195 245 218 229 229 169 168 37 301 79 298 306 182 261 156 185 180 181 191 199 196 218 175 203 237 193 207 213 182 159 192 218 209 191 217 220 132 184 170 203 140 174 196 184 215 224 192 227 245 214 230 312 267 250 246 240 218 205 195 199 207 206 196 192 195
293 292 309 74 32 125 132 148 167 162 179 204 221 234 201 246 101 224 207 127 4 123 213 225 236 174 240 205 119 241 341 304 49 298 250 166 224 163 197 168 188 199 193 178 210 125 186 235 177 174 208 142 167 179 216 200 171 35 114 173 359 193 192 170 197 124 196 234 206 213 182 229 196 223 212 238 251 259 264 266 196 208 198 202 202 196 194 193
337 321 254 63 99 128 146 157 140 224 205 214 199 226 92 217 229 233 245 213 225 195 233 216 202 250 201 241 244 288 240 257 252 284 237 126 252 109 200 242 183 195 193 182 198 154 202 190 244 124 64 137 209 191 215 201 187 180 190 183 187 220 355 299 140 206 200 217 207 228 217 201 191 210 218 228 238 243 242 248 252 217 206 204 199 195 191 194
301 225 269 109 151 149 170 228 172 200 217 307 314 244 196 238 232 235 237 222 248 256 239 204 192 216 229 252 245 191 245 234 199 229 218 235 214 238 212 204 185 166 152 188 208 183 194 168 223 159 181 207 217 184 218 213 203 193 198 196 192 160 169 195 213 104 218 209 191 196 242 156 193 189 208 223 230 238 237 236 245 252 231 205 204 202 195 192
317 307 350 111 151 192 252 242 215 202 260 245 222 179 237 237 255 257 255 183 216 228 175 234 208 225 194 230 250 194 240 253 237 249 234 249 221 244 327 193 162 140 155 174 208 193 201 141 212 214 211 216 213 187 213 234 203 203 201 205 195 201 191 199 224 173 159 237 44 281 275 242 181 200 208 213 225 231 241 232 253 257 261 224 205 209 200 196
292 257 307 298 185 220 256 245 244 208 229 242 330 285 254 272 261 270 233 170 209 209 211 215 202 217 224 237 218 238 224 253 229 231 225 225 243 232 231 151 117 163 215 206 197 191 111 191 187 231 235 273 260 87 134 176 216 207 207 210 190 211 206 216 220 139 205 144 202 170 231 213 176 123 233 246 264 305 336 240 246 257 258 214 206 199 190 190
294 293 302 87 187 233 246 245 221 228 251 256 256 266 268 271 274 254 227 217 217 166 206 200 204 217 242 204 224 234 187 247 215 227 235 215 248 231 239 245 167 223 200 169 212 149 196 164 205 202 226 220 226 216 221 118 217 217 211 204 205 208 209 222 83 61 226 183 200 184 234 186 201 77 268 249 254 259 260 245 223 258 262 225 213 197 190 190
294 255 236 288 192 217 246 314 294 302 310 326 308 279 262 245 222 239 250 244 233 227 191 216 217 152 216 201 221 226 209 219 271 213 238 194 238 295 265 247 204 220 229 221 253 156 211 166 183 210 212 214 204 205 212 201 203 206 282 190 211 204 171 132 210 158 229 153 201 218 233 161 211 14 254 240 232 249 252 256 247 241 256 225 205 194 189 186
315 324 294 257 170 210 248 266 19 356 338 346 309 262 243 250 248 228 220 243 241 244 242 255 233 221 232 215 232 226 230 220 232 245 182 219 233 237 168 146 197 248 239 223 216 182 197 174 191 198 213 226 227 219 145 140 138 218 193 213 187 212 188 200 148 206 217 156 209 205 227 209 206 203 220 232 225 233 244 240 225 233 239 235 215 197 191 188
302 247 310 318 319 209 194 71 27 14 351 338 278 334 286 257 262 254 190 242 201 227 232 225 229 224 216 227 233 238 230 235 226 241 244 260 239 260 291 305 300 264 260 275 222 188 107 200 198 206 212 220 219 216 199 191 207 207 215 211 202 193 195 203 199 219 124 126 228 190 192 214 202 198 205 224 230 240 247 247 247 240 235 216 194 179 184 185
238 259 14 7 306 301 326 227 6 326 315 274 264 294 279 286 279 262 214 229 333 213 217 193 226 227 230 219 204 227 218 228 232 237 235 243 272 276 288 273 262 237 280 295 182 186 191 218 198 205 215 222 223 226 198 198 215 207 211 209 204 196 190 206 209 208 160 208 228 183 179 206 210 211 209 218 218 218 224 227 225 230 43 169 182 189 190 185
256 306 290 340 275 284 274 300 315 296 295 272 269 266 273 279 282 304 303 325 264 206 205 225 206 219 225 230 224 238 177 217 223 220 230 231 224 252 259 277 244 185 292 238 181 244 196 230 190 203 228 227 227 223 185 200 220 224 214 210 202 200 200 203 206 206 192 215 226 209 185 204 206 209 215 223 224 220 232 257 57 217 221 195 191 192 189 185
321 342 312 356 294 290 290 295 285 304 292 288 271 239 267 281 304 348 314 257 262 232 168 228 241 23 303 258 229 233 225 233 250 232 190 221 234 197 246 245 268 195 268 286 176 208 235 190 150 177 225 237 238 233 211 210 214 225 224 216 209 203 202 202 208 203 197 219 215 119 183 231 241 245 247 255 20 321 254 220 220 210 198 195 199 195 191 194
297 292 289 306 306 276 275 275 296 313 303 272 234 277 307 297 341 349 298 249 238 260 94 80 13 331 307 259 233 234 245 291 333 277 289 251 251 145 222 166 281 242 56 44 342 349 220 253 60 140 217 238 229 231 220 212 217 225 228 222 207 200 208 206 226 169 184 202 217 215 218 233 244 216 233 245 246 235 230 229 224 213 207 198 199 198 192 194
279 267 264 264 270 292 305 291 285 274 253 270 320 358 338 319 333 336 316 249 241 258 283 7 357 339 287 246 257 209 12 309 284 278 276 268 267 278 260 272 285 291 198 96 300 299 346 87 206 121 234 245 182 269 253 213 211 234 232 228 217 200 203 199 211 188 200 190 203 208 219 214 232 213 206 227 222 229 238 241 241 232 216 206 205 202 199 193